Cloud_Cover
5 6 5 5 4 4 0 0 0 0 0 0 0 0 0 0 0 0 0 0 0 0 0 0 0 0 0 0 0 0 0 0 3 5 5 5 5 5 5 5 5 5 5 6
5 5 5 5 6 28 5 5 5 3 0 0 0 0 0 0 0 0 0 0 0 0 0 0 0 0 0 0 0 0 0 0 0 1 5 5 5 5 5 5 5 5 26 100
5 5 12 77 55 5 5 6 5 3 0 0 0 0 0 0 0 0 0 0 0 0 0 0 0 0 0 0 0 0 0 0 2 5 5 5 5 5 6 7 9 59 100 100
5 5 20 100 8 5 5 5 68 5 0 0 0 0 0 0 0 0 0 0 0 0 0 0 0 0 0 0 0 0 1 5 5 5 5 5 9 88 92 82 87 100 100 100
5 5 88 21 5 5 5 5 76 6 0 0 0 0 0 0 0 0 0 0 0 0 0 0 0 0 0 0 0 0 1 1 2 1 4 5 64 100 100 100 100 99 100 100
58 54 97 100 78 5 5 88 5 5 4 0 0 0 0 0 0 0 0 0 0 0 0 0 0 0 0 0 0 0 4 4 0 5 1 5 5 85 100 97 100 100 100 100
83 33 96 100 99 5 38 94 2 5 4 0 0 0 0 0 0 0 0 0 0 0 0 0 0 0 0 0 0 0 0 2 5 5 5 5 5 29 42 5 5 24 75 92
5 5 97 100 100 95 18 6 5 5 5 5 1 0 0 0 0 0 0 0 0 0 0 0 0 0 0 0 0 0 0 4 0 0 0 5 5 11 5 5 5 6 6 6
6 53 100 100 26 5 5 5 6 9 5 5 5 5 4 0 0 0 0 0 0 0 0 0 0 0 0 0 0 0 0 0 0 0 3 4 5 5 5 5 14 51 97 100
62 31 100 100 98 83 25 5 5 5 5 5 5 5 5 5 0 0 0 0 0 0 0 0 0 0 0 0 0 0 0 4 5 5 5 5 5 5 5 5 5 28 96 100
58 70 99 100 100 47 4 5 5 6 5 5 5 5 5 5 0 0 0 0 0 0 0 0 0 0 0 0 0 5 5 5 5 5 5 5 5 5 5 5 5 37 53 74
100 100 100 73 5 5 5 5 5 70 99 100 33 5 5 1 2 0 0 0 0 0 0 0 0 0 0 0 0 5 5 5 8 7 10 52 83 88 16 11 40 10 9 5
100 100 56 30 5 5 87 58 32 6 80 45 6 6 5 4 5 3 0 0 0 0 0 0 0 0 0 0 5 5 5 5 21 28 100 100 100 100 100 100 100 99 70 5
100 100 68 30 21 8 51 14 6 5 17 60 59 6 5 0 0 0 0 0 0 0 0 0 4 5 5 0 5 5 5 5 5 17 5 27 100 100 100 100 100 100 22 43
100 100 100 99 13 6 42 47 21 99 100 100 49 5 5 0 0 0 0 0 0 0 0 0 3 5 5 5 5 5 5 5 5 5 5 5 95 100 100 100 100 91 69 73
100 100 100 100 70 22 58 93 99 100 100 95 37 14 5 3 0 4 0 0 0 0 0 0 5 5 5 5 5 5 19 25 42 12 5 14 5 93 100 100 100 100 99 100
100 100 100 100 100 100 99 100 100 100 100 100 100 73 9 5 6 5 5 5 5 5 3 5 56 5 38 92 28 35 69 71 47 9 9 5 10 100 100 100 100 100 100 100
100 100 100 100 100 100 100 100 100 100 100 100 100 100 100 100 100 24 5 5 5 11 6 41 25 57 100 98 11 35 81 99 31 7 31 5 79 100 100 100 100 100 100 100
100 100 100 100 100 100 100 100 100 100 100 100 100 100 100 100 100 100 85 59 94 94 88 99 80 95 86 7 9 31 86 66 22 10 17 20 83 100 94 90 100 100 100 100
100 100 100 100 100 100 100 100 100 100 100 100 100 100 100 100 100 100 98 100 100 96 100 99 80 33 10 5 10 30 30 45 55 92 100 78 100 100 100 98 100 100 100 100
100 100 100 100 100 100 100 100 66 39 96 100 100 100 100 99 98 100 100 100 100 86 100 99 73 35 63 31 31 41 83 98 100 100 66 81 100 100 100 100 100 98 100 100
100 100 100 100 100 97 97 100 100 93 85 100 100 88 39 5 30 81 100 88 49 78 100 93 45 49 85 98 38 94 85 70 78 100 100 94 95 100 79 99 100 92 100 100
100 100 100 90 82 62 27 77 100 100 100 100 100 56 5 28 89 100 86 81 99 100 73 43 40 60 100 90 14 5 5 5 40 95 100 100 100 100 96 100 89 97 100 100
100 100 93 89 45 74 100 100 100 100 100 100 100 95 97 72 98 86 79 92 100 96 76 40 49 73 100 100 72 49 31 23 77 100 100 100 83 100 98 100 100 96 98 100
5 27 95 85 66 70 58 85 100 100 100 100 100 100 100 81 99 100 98 100 100 100 100 93 96 98 83 86 80 77 46 5 61 100 100 100 94 100 92 100 100 99 100 100
5 6 5 10 90 91 44 39 93 100 100 100 100 100 100 100 100 100 100 100 100 100 100 100 100 100 96 79 69 62 13 5 92 98 100 100 94 100 100 100 100 97 96 92
6 67 90 72 78 71 89 100 100 100 100 100 100 100 100 99 100 100 100 100 100 100 100 100 100 89 70 66 32 5 5 5 10 100 100 97 89 83 100 100 100 100 90 92